GW0416 Weather Reports


Display with metric or nautical units.
time (UTC)temp
F
wind
direction
speed
MPH
gust
MPH
rain 1hr
in
rain 24hr
in
rain mn
in
humidity
%
barometer
mb
20260901041535 60 118 4.0 6.0 0.00 0.00 0.00 51 1015.0
20260901040058 62 120 5.0 8.0 0.00 0.00 0.00 48 1014.9
20260901034537 62 132 7.0 8.0 0.00 0.00 0.00 48 1014.8
20260901033037 63 126 7.0 8.0 0.00 0.00 0.00 46 1014.6
20260901031535 64 113 6.0 7.0 0.00 0.00 0.00 45 1014.5
20260901030036 65 118 4.0 7.0 0.00 0.00 0.00 43 1014.4
20260901024535 66 95 3.0 5.0 0.00 0.00 0.00 43 1014.5
20260901023051 69 141 3.0 5.0 0.00 0.00 0.00 38 1014.4
20260901021537 70 150 3.0 6.0 0.00 0.00 0.00 37 1014.4
20260901020043 70 151 4.0 6.0 0.00 0.00 0.00 38 1014.5
20260901014550 71 157 4.0 5.0 0.00 0.00 0.00 37 1014.4
20260901013036 72 183 4.0 8.0 0.00 0.00 0.00 36 1014.4
20260901011539 72 205 6.0 9.0 0.00 0.00 0.00 36 1014.4
20260901010036 72 186 7.0 10.0 0.00 0.00 0.00 35 1014.5
20260901004543 73 200 8.0 14.0 0.00 0.00 0.00 35 1014.6
20260901003037 73 197 8.0 13.0 0.00 0.00 0.00 36 1014.7
20260901001536 73 202 7.0 17.0 0.00 0.00 0.00 36 1014.7
20260901000039 73 165 7.0 14.0 0.00 0.00 0.00 36 1014.6
20260831234537 73 209 7.0 15.0 0.00 0.00 0.00 36 1014.8
20260831233035 74 234 6.0 12.0 0.00 0.00 0.00 37 1014.8
20260831231538 73 69 3.0 9.0 0.00 0.00 0.00 37 1014.8
20260831230041 72 144 11.0 18.0 0.00 0.00 0.00 38 1014.9
20260831224538 72 215 9.0 15.0 0.00 0.00 0.00 38 1014.9
20260831223036 72 235 10.0 14.0 0.00 0.00 0.00 38 1015.0
20260831221536 73 212 3.0 10.0 0.00 0.00 0.00 38 1015.2
20260831220038 73 277 6.0 13.0 0.00 0.00 0.00 39 1015.1
20260831214539 72 298 9.0 15.0 0.00 0.00 0.00 39 1015.2
20260831213034 71 233 10.0 15.0 0.00 0.00 0.00 40 1015.4
20260831211536 71 304 10.0 17.0 0.00 0.00 0.00 39 1015.4
20260831210037 71 253 9.0 19.0 0.00 0.00 0.00 40 1015.4
20260831204549 71 323 10.0 18.0 0.00 0.00 0.00 40 1015.5
20260831203037 71 205 3.0 12.0 0.00 0.00 0.00 41 1015.7
20260831201536 70 272 11.0 16.0 0.00 0.00 0.00 41 1015.8
20260831200044 69 298 12.0 21.0 0.00 0.00 0.00 42 1015.7
20260831194540 69 276 11.0 16.0 0.00 0.00 0.00 42 1015.9
20260831193040 68 248 11.0 18.0 0.00 0.00 0.00 45 1016.0
20260831191537 68 267 9.0 12.0 0.00 0.00 0.00 45 1016.3
20260831190048 68 290 7.0 17.0 0.00 0.00 0.00 44 1016.5
20260831184536 68 220 9.0 19.0 0.00 0.00 0.00 45 1016.6
20260831183038 67 344 9.0 15.0 0.00 0.00 0.00 46 1016.5
20260831181535 67 305 11.0 22.0 0.00 0.00 0.00 46 1016.5
20260831180044 67 285 13.0 18.0 0.00 0.00 0.00 45 1016.6
20260831174543 67 282 8.0 17.0 0.00 0.00 0.00 48 1016.6
20260831173039 66 291 10.0 16.0 0.00 0.00 0.00 49 1016.7
20260831171537 66 288 9.0 19.0 0.00 0.00 0.00 48 1016.5
20260831170037 65 315 9.0 20.0 0.00 0.00 0.00 51 1016.6
20260831164553 65 5 12.0 20.0 0.00 0.00 0.00 52 1016.6
20260831163041 64 321 11.0 22.0 0.00 0.00 0.00 54 1016.5
20260831161535 64 292 10.0 20.0 0.00 0.00 0.00 54 1016.4
20260831160043 63 306 11.0 21.0 0.00 0.00 0.00 54 1016.3
20260831154604 62 284 11.0 19.0 0.00 0.00 0.00 54 1016.3
20260831153036 61 294 14.0 20.0 0.00 0.00 0.00 55 1016.4
20260831151534 59 296 16.0 22.0 0.00 0.00 0.00 57 1016.2
20260831150043 58 295 16.0 23.0 0.00 0.00 0.00 58 1016.1
20260831144538 57 300 18.0 25.0 0.00 0.00 0.00 59 1015.8
20260831143038 56 281 15.0 25.0 0.00 0.00 0.00 62 1015.6
20260831141535 54 290 14.0 20.0 0.00 0.00 0.00 65 1015.5
20260831140038 53 276 11.0 18.0 0.00 0.00 0.00 67 1015.5
20260831134534 51 290 11.0 17.0 0.00 0.00 0.00 71 1015.2
20260831133035 49 270 10.0 16.0 0.00 0.00 0.00 73 1015.2
20260831131535 48 279 12.0 16.0 0.00 0.00 0.00 75 1014.9
20260831130107 46 284 8.0 11.0 0.00 0.00 0.00 78 1014.9
20260831124535 47 295 10.0 15.0 0.00 0.00 0.00 76 1014.7
20260831123033 47 290 9.0 13.0 0.00 0.00 0.00 76 1014.5
20260831121536 48 294 9.0 15.0 0.00 0.00 0.00 74 1014.5
20260831120040 49 276 11.0 17.0 0.00 0.00 0.00 72 1014.2
20260831114536 49 288 13.0 18.0 0.00 0.00 0.00 71 1014.1
20260831113038 49 266 11.0 17.0 0.00 0.00 0.00 71 1014.3
20260831111546 49 271 11.0 18.0 0.00 0.00 0.00 71 1014.2
20260831110040 50 254 13.0 19.0 0.00 0.00 0.00 71 1014.1
20260831104552 49 269 12.0 20.0 0.00 0.00 0.00 72 1014.1
20260831103039 49 273 12.0 17.0 0.00 0.00 0.00 72 1013.8
20260831101537 49 275 12.0 20.0 0.00 0.00 0.00 73 1013.6
20260831100038 49 283 11.0 19.0 0.00 0.00 0.00 73 1013.6
20260831094534 48 265 10.0 14.0 0.00 0.00 0.00 75 1013.6
20260831093046 48 281 5.0 12.0 0.00 0.00 0.00 76 1013.8
20260831091534 48 261 8.0 17.0 0.00 0.00 0.00 75 1013.8
20260831090041 48 271 12.0 16.0 0.00 0.00 0.00 74 1013.4
20260831084536 49 270 12.0 18.0 0.00 0.01 0.00 73 1013.3
20260831083038 49 246 10.0 18.0 0.00 0.01 0.00 74 1013.1
20260831081536 49 237 10.0 17.0 0.00 0.01 0.00 74 1012.9
20260831080037 48 263 11.0 17.0 0.00 0.01 0.00 76 1012.5
20260831074537 48 269 9.0 14.0 0.00 0.01 0.00 75 1012.8
20260831073037 49 242 11.0 17.0 0.00 0.01 0.00 74 1012.7
20260831071535 50 256 11.0 19.0 0.00 0.01 0.00 73 1012.8
20260831070038 50 248 12.0 20.0 0.00 0.01 0.00 72 1012.7
20260831064537 51 270 12.0 20.0 0.00 0.01 0.00 71 1012.7
20260831063035 52 275 13.0 23.0 0.00 0.01 0.00 69 1012.7
20260831061535 52 242 10.0 20.0 0.00 0.01 0.00 68 1013.0
20260831060043 52 242 12.0 20.0 0.00 0.01 0.00 67 1012.8
20260831054537 53 253 13.0 22.0 0.00 0.01 0.01 66 1012.7
20260831053036 53 257 13.0 19.0 0.00 0.01 0.01 65 1012.5
20260831051538 53 263 14.0 23.0 0.00 0.01 0.01 66 1012.5
20260831050037 53 276 13.0 22.0 0.00 0.01 0.01 67 1012.4
20260831044536 53 271 14.0 20.0 0.00 0.01 0.01 66 1012.6
20260831043037 54 291 15.0 22.0 0.00 0.01 0.01 66 1012.5